Flag Weather past 2 weeks in Szczecin, Poland

Now
39 °F

Passing clouds.


Feels Like: 34 °F
Forecast: 30 / 39 °F
Wind: 8 mph from Southeast

Location: Szczecin Airport

Current Time: Nov 26, 2014 at 6:42:30 PM

Latest Report: Nov 26, 2014 at 6:00 PM


Visibility: N/A

Pressure: 30.24 "Hg

Humidity: 87%

Dew point: 36 °F

Location of SzczecinLocation

Historic Weather in Szczecin — Graph

°F

Szczecin temperature yesterday

Maximum temperature yesterday: 45 °F (at 12:30 PM)
Minimum temperature yesterday: 39 °F (at 12:00 AM)
Average temperature yesterday: 42 °F

Past Weeks' High & Low Weather Summary

 TemperatureHumidityPressure
High57 °F (Nov 12, 12:30 PM)100% (Nov 11, 8:00 PM)30.36 "Hg (Nov 11, 8:00 PM)
Low36 °F (Nov 19, 6:30 AM)71% (Nov 22, 2:30 PM)29.68 "Hg (Nov 16, 12:30 PM)
Average43 °F93%30.07 "Hg
* Reported Nov 11 5:00 PM — Nov 26 5:30 PM, Szczecin, Weather by CustomWeather, © 2014

Note: Actual official high and low records may vary slightly from our data, if they occured in-between our weather recording intervals... More about our weather records

Advertising

Szczecin weather history for previous 24 hours

 ConditionsComfort  
Time TempWeatherWind HumidityBarometerVisibility
5:30 PM
Nov 26
39 °FPassing clouds.6 mph87%30.24 "HgN/A
5:00 PM39 °FPassing clouds.5 mph87%30.24 "HgN/A
4:30 PM39 °FPassing clouds.6 mph87%30.24 "HgN/A
4:00 PM39 °FPassing clouds.5 mph87%30.24 "HgN/A
3:30 PM41 °FPartly sunny.6 mph81%30.24 "HgN/A
3:00 PM41 °FPartly sunny.7 mph81%30.24 "HgN/A
2:30 PM41 °FScattered clouds.6 mph87%30.24 "HgN/A
2:00 PM41 °FScattered clouds.7 mph87%30.27 "HgN/A
1:30 PM43 °FPartly sunny.5 mph81%30.27 "HgN/A
1:00 PM43 °FBroken clouds.3 mph81%30.27 "HgN/A
12:30 PM43 °FBroken clouds.2 mph81%30.30 "HgN/A
12:00 PM43 °FBroken clouds.3 mph81%30.30 "HgN/A
11:30 AM41 °FPartly sunny.5 mph87%30.30 "HgN/A
11:00 AM43 °FScattered clouds.6 mph87%30.30 "HgN/A
10:30 AM43 °FPartly sunny.3 mph93%30.30 "Hg5 mi
10:00 AM41 °FPartly sunny.2 mph93%30.30 "Hg4 mi
9:30 AM41 °FPartly sunny.2 mph100%30.30 "Hg4 mi
9:00 AM41 °FPartly sunny.3 mph93%30.30 "Hg4 mi
8:30 AM41 °FFog.2 mph93%30.30 "Hg3 mi
8:00 AM39 °FPartly sunny.2 mph100%30.30 "Hg4 mi
7:30 AM39 °FPassing clouds.3 mph100%30.30 "Hg4 mi
7:00 AM39 °FPassing clouds.3 mph100%30.30 "Hg4 mi
6:30 AM39 °FFog.2 mph100%30.30 "Hg3 mi
6:00 AM39 °FFog.2 mph100%30.30 "Hg3 mi
5:30 AM39 °FFog.3 mph100%30.30 "Hg3 mi
5:00 AM39 °FFog.3 mph100%30.30 "Hg3 mi
4:30 AM39 °FFog.3 mph100%30.30 "Hg2 mi
4:00 AM39 °FFog.3 mph100%30.30 "Hg2 mi
3:30 AM39 °FFog.3 mph100%30.30 "Hg1 mi
3:00 AM39 °FFog.3 mph100%30.30 "Hg1 mi
2:30 AM39 °FFog.2 mph100%30.33 "Hg1 mi
2:00 AM39 °FFog.2 mph100%30.33 "Hg1 mi
1:30 AM39 °FFog.2 mph100%30.33 "Hg1 mi
1:00 AM39 °FFog.6 mph100%30.33 "Hg1 mi
12:30 AM39 °FFog.5 mph100%30.33 "Hg1 mi
12:00 AM41 °FFog.5 mph100%30.33 "Hg1 mi
11:30 PM
Nov 25
41 °FFog.3 mph100%30.33 "Hg0 mi
11:00 PM41 °FFog.2 mph100%30.33 "Hg0 mi
10:30 PM41 °FFog.No wind100%30.33 "Hg0 mi
10:00 PM41 °FFog.No wind100%30.33 "Hg0 mi
9:30 PM43 °FFog.2 mph100%30.33 "Hg0 mi
9:00 PM43 °FFog.3 mph100%30.33 "Hg0 mi
8:30 PM43 °FFog.2 mph100%30.33 "Hg1 mi
8:00 PM43 °FFog.No wind100%30.33 "Hg1 mi
7:30 PM43 °FFog.No wind100%30.33 "Hg1 mi
7:00 PM43 °FFog.2 mph100%30.33 "Hg1 mi
6:30 PM43 °FFog.1 mph100%30.33 "Hg1 mi
6:00 PM43 °FFog.No wind100%30.33 "Hg1 mi
Weather by CustomWeather, © 2014

See weather overviewHow to use our weather pages